Погода в Пялице

Погода в Пялице : погода сейчас, прогноз погоды и архив. Всё, что Вы хотите узнать о погоде в Пялице!

Хотите узнать прогноз погоды в Пялице? Тогда Вам сюда: Погода в Пялице

Поиск расширенной информации на нашем сайте:

Другие новости

Новости СМИ2

Главная страница сайта

Новости сайта

03.07.2017

Напоминаем, что на нашем специализированном сайте Метеоцентр.Азия вы можете получить высокодетализированные автоматические прогнозы погоды по пунктам России, СНГ и мира в авиационном формате (включающие направление и скорость ветра, видимость, явления погоды, количество и форму облачности, нижнюю и верхнюю границу облачности).

Рекомендуем: Мастера ушу - обои спорт.

Погода в Пялице - сегодня

Время (UTC), дата Ветер
(°,м/с) 
Видим.   Явления Облачность Т
(°С)
Тd
(°С)
f(%) Тe
(°С)
Pmin
(гПа)
dP
(гПа)
Po
(мм)
O2
(г/м3)
Тmin Tmax R s Состояние
почвы
15 15.10.17 060 (СВ) 4-5  20000 м    10/10 600 м кучево-дожд. 
[Cb cap]
+3.9 +3.2 95 +2  1009.1  1.5  756  300         
18 15.10.17 050 (СВ) 4-6  20000 м    10/10 600 м кучево-дожд. 
[Cb cap]
+4.1 +3.4 95 +2  1009.6  0.6  756  300    +4.6  0.6     
21 15.10.17 040 (СВ) 3-4  н/о    н/о 
+3.9 +3.3 96 +3  1010.1  0.5  757  300           
00 16.10.17 030 (СВ) 3-4  н/о    н/о 
+3.7 +3.2 97 +2  1010  0.1  757  300           
03 16.10.17 360 (С) 2-2  н/о    н/о 
+3.6 +3.3 98 +3  1009.7  -0.3  756  300  +3.6         
06 16.10.17 360 (С) 2-3  4000 м  слаб. ливневой дождь  10/10 300 м кучево-дожд. 
[Cb cap]
+3.8 +3.5 98 +3  1008.9  -0.7  756  300  +3.6    0.3     
09 16.10.17 070 (В) 1-2  10 км  слаб. ливневой дождь  10/10 300 м кучево-дожд. 
[Cb cap]
+4.4 +4.1 98 +5  1007.4  -1.5  755  299           
12 16.10.17 190 (Ю) 5-6  20000 м  {ливн. осадки}  10/10 600 м кучево-дожд. 
[Cb cap]
+4.7 +3.8 94 +3  1005.4  -2  753  298           
15 16.10.17 180 (Ю) 8-10{10}  20000 м  {ливн. осадки}  10/10 600 м кучево-дожд. 
[Cb cap]
+5.1 +4.1 93 +2  1002  -3.4  751  296      0.6     
18 16.10.17 160 (Ю) 10-13{13}  4000 м  слаб. ливневой дождь  10/10 300 м кучево-дожд. 
[Cb cap]
+4.4 +3.8 96 +1  997.5  -4.5  747  296    +5.2  0.3     
21 16.10.17 160 (Ю) 12-15{16}  н/о    н/о 
+4.2 +3 92 991.7  -5.7  743  294           
00 17.10.17 160 (Ю) 12-16{16}  н/о    н/о 
+3.3 +2.6 95 -1  986.5  -5.2  739  294           
03 17.10.17 170 (Ю) 8-11{16}  н/о    н/о 
+4.7 +4.3 97 +1  983.6  -2.9  737  291  +3.2         
06 17.10.17 200 (Ю) 3-3{12}  20000 м    9/9 600 м кучево-дожд. 
[Cb cap]
+4.8 +3.2 89 +4  983.8  0.2  737  291  +3.2       
09 17.10.17 040 (СВ) 2-2  20000 м    9/9 600 м кучево-дожд. 
[Cb cap]
+5.3 +4.4 94 +5  985.5  1.7  738  291           
12 17.10.17 360 (С) 4-6  4000 м  слаб. ливневой дождь  9/9 600 м кучево-дожд. 
[Cb cap]
+4.8 +4.1 95 +3  987.9  2.4  740  292           
15 17.10.17 320 (СЗ) 4-6  20000 м  {ливн. осадки}  9/9 600 м кучево-дожд. 
[Cb cap]
+3.4 +2.4 93 +1  989.7  1.7  741  295         
18 17.10.17 320 (СЗ) 3-4  4000 м  слаб. ливневой дождь  10/10 600 м кучево-дожд. 
[Cb cap]
+3.3 +2.8 97 +2  990.3  0.6  742  295    +5.3  0.4     
21 17.10.17 330 (СЗ) 3-4  н/о    н/о 
+3.1 +2.2 94 +2  990.3  0.1  742  295           
00 18.10.17 340 (С) 4-6  н/о    н/о 
+3.7 +2.9 94 +2  990.4  742  294           
03 18.10.17 320 (СЗ) 3-5  н/о    н/о 
+3.9 +3.1 95 +3  990  -0.4  742  294  +2.8         
06 18.10.17 340 (С) 3-4  20000 м    10/10 600 м кучево-дожд. 
[Cb cap]
+4.5 +3.6 94 +3  990.2  0.2  742  293  +2.9    0.4     
09 18.10.17 340 (С) 2-3  20000 м    10/10 600 м кучево-дожд. 
[Cb cap]
+5.6 +3.7 88 +5  990.7  0.6  742  292           
12 18.10.17 350 (С) 3-4  н/о    н/о 
+5.6 +3.6 87 +5  991.3  0.6  743  293           
15 18.10.17 350 (С) 4-5  20000 м    9/9 600 м 
[Sc]
+2.9 +1.1 88 +1  992.5  1.1  744  296      0.4     
Время (UTC), дата Ветер
(°,м/с) 
Видим.   Явления Облачность Т
(°С)
Тd
(°С)
f(%) Тe
(°С)
Pmin
(гПа)
dP
(гПа)
Po
(мм)
O2
(г/м3)
Тmin Tmax R s Состояние
почвы

Для получения пояснительной информации подведите курсор к названию столбца.

ПОГОДА в Пялице - архив

Всё, что Вы хотите узнать о погоде в Пялице - удобно и подробно!

Выберите нужную дату (начиная с 1 января 2015* года) и нажмите кнопку "Найти".
Будут отображены архивные сводки погоды по пункту Пялица, начиная с указанной даты.


Отображать данные в формате CSV (для использования в таблицах Excel)


Внимание! Наш архив погоды предназначен исключительно для личного некоммерческого использования в познавательных целях. Если Вам необходимы официальные справки о состоянии погоды (для производственных, юридических, коммерческих и т.п. целей), обращайтесь в органы Росгидромета.

*Примечание: данная дата относится к архиву по метеостанциям СССР (Россия, СНГ, Балтия).
Архив по метеостанциям Зарубежной Европы и Азии (кроме Китая) хранится 10 дней, по другим регионам земного шара (Китай, Африка, Америка, Австралия, Океания) - 1 день.

Пялица - район местоположения метеостанции


Название, широта, долгота, высота метеостанции:
Пялица 66.2°ш. 39.5°д. 9 м над ур. моря [Российская Федерация]

Дополнительная информация

В oтличие oт бoльшинства пoгoдных сайтoв мы публикуем пoдрoбную метеoинфoрмацию в детальнoм прoфессиoнальнoм фoрмате.

Характеристики температуры и влажнoсти вoздуха измеряются на высoте 2 м в тени вдали oт зданий и деревьев.
Скoрoсть ветра измеряется на высoте 10 м (на урoвне рoста челoвека скoрoсть ветра ниже в 1.5-2 раза). Если метеoстанция нахoдится в гoрoде или в лесу, тo скoрoсть ветра занижена на 2-4 м/с пo сравнению с oткрытым местoм. Скoрoсть ветра над акватoриями крупных рек и oзёр, а также на вершинах хoлмoв на 2-5 м/с выше, чем в oбычных услoвиях.
Атмoсфернoе давление в разных тoчках местнoсти мoжет значительнo oтличаться oт давления на метеoстанции, в зависимoсти oт услoвий рельефа (при пoдъёме на 10 м давление пoнижается примернo на 1 мм рт.ст.).